| time (UTC) | temp C | wind direction | speed KPH | gust KPH | rain 1hr cm | rain 24hr cm | rain mn cm | humidity % | barometer mb |
| 20260505181523 | 27 | 294 | 8.0 | 22.5 | 0.00 | 0.00 | 0.00 | 36 | 1008.4 |
| 20260505181009 | 27 | 249 | 9.7 | 29.0 | 0.00 | 0.00 | 0.00 | 35 | 1008.5 |
| 20260505180509 | 27 | 250 | 14.5 | 29.0 | 0.00 | 0.00 | 0.00 | 34 | 1008.6 |
| 20260505180038 | 27 | 241 | 8.0 | 25.7 | 0.00 | 0.00 | 0.00 | 35 | 1008.5 |
| 20260505175508 | 26 | 259 | 14.5 | 27.4 | 0.00 | 0.00 | 0.00 | 35 | 1008.7 |
| 20260505175008 | 26 | 207 | 14.5 | 27.4 | 0.00 | 0.00 | 0.00 | 35 | 1008.7 |
| 20260505174526 | 26 | 274 | 11.3 | 35.4 | 0.00 | 0.00 | 0.00 | 36 | 1008.8 |
| 20260505174006 | 26 | 175 | 9.7 | 35.4 | 0.00 | 0.00 | 0.00 | 36 | 1008.7 |
| 20260505173510 | 26 | 274 | 14.5 | 30.6 | 0.00 | 0.00 | 0.00 | 36 | 1008.8 |
| 20260505173018 | 26 | 217 | 12.9 | 27.4 | 0.00 | 0.00 | 0.00 | 37 | 1008.9 |
| 20260505172506 | 26 | 240 | 9.7 | 29.0 | 0.00 | 0.00 | 0.00 | 36 | 1008.9 |
| 20260505172008 | 26 | 216 | 12.9 | 35.4 | 0.00 | 0.00 | 0.00 | 37 | 1009.0 |
| 20260505171522 | 26 | 278 | 14.5 | 35.4 | 0.00 | 0.00 | 0.00 | 36 | 1008.9 |
| 20260505171010 | 26 | 209 | 14.5 | 30.6 | 0.00 | 0.00 | 0.00 | 36 | 1009.0 |
| 20260505170510 | 26 | 270 | 14.5 | 29.0 | 0.00 | 0.00 | 0.00 | 36 | 1009.1 |
| 20260505170024 | 26 | 285 | 12.9 | 22.5 | 0.00 | 0.00 | 0.00 | 37 | 1009.1 |
| 20260505165511 | 25 | 218 | 14.5 | 27.4 | 0.00 | 0.00 | 0.00 | 37 | 1009.2 |
| 20260505165009 | 25 | 244 | 6.4 | 32.2 | 0.00 | 0.00 | 0.00 | 38 | 1009.3 |
| 20260505164526 | 25 | 274 | 12.9 | 32.2 | 0.00 | 0.00 | 0.00 | 37 | 1009.4 |
| 20260505164005 | 25 | 273 | 12.9 | 35.4 | 0.00 | 0.00 | 0.00 | 36 | 1009.5 |
| 20260505163505 | 26 | 296 | 19.3 | 35.4 | 0.00 | 0.00 | 0.00 | 36 | 1009.7 |
| 20260505163016 | 26 | 269 | 16.1 | 32.2 | 0.00 | 0.00 | 0.00 | 37 | 1009.7 |
| 20260505162506 | 25 | 246 | 17.7 | 30.6 | 0.00 | 0.00 | 0.00 | 37 | 1009.7 |
| 20260505162007 | 25 | 276 | 11.3 | 27.4 | 0.00 | 0.00 | 0.00 | 38 | 1009.7 |
| 20260505161518 | 25 | 269 | 14.5 | 27.4 | 0.00 | 0.00 | 0.00 | 37 | 1009.8 |
| 20260505161003 | 25 | 271 | 12.9 | 25.7 | 0.00 | 0.00 | 0.00 | 39 | 1009.8 |
| 20260505160503 | 25 | 271 | 14.5 | 29.0 | 0.00 | 0.00 | 0.00 | 38 | 1009.7 |
| 20260505153011 | 25 | 276 | 6.4 | 12.9 | 0.00 | 0.00 | 0.00 | 44 | 1009.9 |
| 20260505152505 | 25 | 241 | 4.8 | 14.5 | 0.00 | 0.00 | 0.00 | 44 | 1009.9 |
| 20260505152010 | 24 | 184 | 8.0 | 19.3 | 0.00 | 0.00 | 0.00 | 45 | 1010.0 |
| 20260505151517 | 24 | 241 | 12.9 | 19.3 | 0.00 | 0.00 | 0.00 | 45 | 1009.9 |
| 20260505151009 | 24 | 263 | 6.4 | 17.7 | 0.00 | 0.00 | 0.00 | 45 | 1009.9 |
| 20260505150507 | 23 | 289 | 6.4 | 22.5 | 0.00 | 0.00 | 0.00 | 45 | 1009.9 |
| 20260505140507 | 21 | 229 | 8.0 | 19.3 | 0.00 | 0.00 | 0.00 | 51 | 1010.5 |
| 20260505125008 | 18 | 234 | 4.8 | 14.5 | 0.00 | 0.00 | 0.00 | 61 | 1011.2 |
| 20260505124534 | 17 | 226 | 8.0 | 14.5 | 0.00 | 0.00 | 0.00 | 62 | 1011.1 |
| 20260505124009 | 17 | 229 | 3.2 | 12.9 | 0.00 | 0.00 | 0.00 | 63 | 1011.1 |
| 20260505123508 | 17 | 215 | 4.8 | 11.3 | 0.00 | 0.00 | 0.00 | 63 | 1011.0 |
| 20260505123022 | 17 | 253 | 4.8 | 12.9 | 0.00 | 0.00 | 0.00 | 64 | 1011.0 |
| 20260505122511 | 17 | 255 | 6.4 | 16.1 | 0.00 | 0.00 | 0.00 | 64 | 1011.2 |
| 20260505122001 | 17 | 252 | 6.4 | 16.1 | 0.00 | 0.00 | 0.00 | 64 | 1011.2 |
| 20260505121523 | 17 | 231 | 6.4 | 11.3 | 0.00 | 0.00 | 0.00 | 64 | 1011.1 |
| 20260505121005 | 17 | 250 | 3.2 | 11.3 | 0.00 | 0.00 | 0.00 | 65 | 1011.1 |
| 20260505120506 | 17 | 224 | 4.8 | 11.3 | 0.00 | 0.00 | 0.00 | 65 | 1011.2 |
| 20260505120013 | 16 | 233 | 3.2 | 8.0 | 0.00 | 0.00 | 0.00 | 65 | 1011.1 |
| 20260505115505 | 16 | 243 | 3.2 | 8.0 | 0.00 | 0.00 | 0.00 | 66 | 1011.0 |
| 20260505115007 | 16 | 195 | 3.2 | 8.0 | 0.00 | 0.00 | 0.00 | 67 | 1011.1 |
| 20260505114516 | 16 | 257 | 3.2 | 4.8 | 0.00 | 0.00 | 0.00 | 68 | 1011.0 |
| 20260505114008 | 16 | 266 | 1.6 | 4.8 | 0.00 | 0.00 | 0.00 | 68 | 1010.9 |
| 20260505113509 | 16 | 207 | 0.0 | 6.4 | 0.00 | 0.00 | 0.00 | 67 | 1010.9 |
| 20260505113021 | 16 | 212 | 4.8 | 8.0 | 0.00 | 0.00 | 0.00 | 66 | 1010.8 |
| 20260505112510 | 16 | 203 | 1.6 | 8.0 | 0.00 | 0.00 | 0.00 | 67 | 1010.7 |
| 20260505112011 | 16 | 224 | 3.2 | 9.7 | 0.00 | 0.00 | 0.00 | 66 | 1010.7 |
| 20260505111533 | 16 | 240 | 4.8 | 9.7 | 0.00 | 0.00 | 0.00 | 67 | 1010.7 |
| 20260505110505 | 15 | 215 | 3.2 | 8.0 | 0.00 | 0.00 | 0.00 | 67 | 1010.6 |
| 20260505102006 | 15 | 262 | 3.2 | 12.9 | 0.00 | 0.00 | 0.00 | 69 | 1010.2 |
| 20260505101506 | 15 | 259 | 3.2 | 12.9 | 0.00 | 0.00 | 0.00 | 69 | 1010.3 |
| 20260505101003 | 15 | 255 | 1.6 | 6.4 | 0.00 | 0.00 | 0.00 | 69 | 1010.3 |
| 20260505100503 | 15 | 207 | 3.2 | 8.0 | 0.00 | 0.00 | 0.00 | 69 | 1010.3 |
| 20260505100017 | 15 | 214 | 3.2 | 8.0 | 0.00 | 0.00 | 0.00 | 69 | 1010.2 |
| 20260505095503 | 15 | 250 | 0.0 | 8.0 | 0.00 | 0.00 | 0.00 | 69 | 1010.1 |
| 20260505095006 | 15 | 237 | 1.6 | 8.0 | 0.00 | 0.00 | 0.00 | 70 | 1010.1 |
| 20260505094516 | 14 | 204 | 1.6 | 4.8 | 0.00 | 0.00 | 0.00 | 71 | 1010.0 |
| 20260505094006 | 14 | 174 | 1.6 | 3.2 | 0.00 | 0.00 | 0.00 | 71 | 1009.9 |
| 20260505093506 | 14 | 341 | 0.0 | 1.6 | 0.00 | 0.00 | 0.00 | 72 | 1009.9 |
| 20260505093026 | 14 | 342 | 0.0 | 1.6 | 0.00 | 0.00 | 0.00 | 71 | 1009.9 |
| 20260505092506 | 15 | 342 | 0.0 | 1.6 | 0.00 | 0.00 | 0.00 | 71 | 1009.8 |
| 20260505092010 | 15 | 342 | 0.0 | 1.6 | 0.00 | 0.00 | 0.00 | 70 | 1009.8 |
| 20260505091532 | 15 | 342 | 0.0 | 3.2 | 0.00 | 0.00 | 0.00 | 69 | 1009.8 |
| 20260505091008 | 15 | 342 | 0.0 | 4.8 | 0.00 | 0.00 | 0.00 | 69 | 1009.7 |
| 20260505090503 | 16 | 359 | 1.6 | 12.9 | 0.00 | 0.00 | 0.00 | 67 | 1009.9 |
| 20260505090008 | 16 | 285 | 3.2 | 12.9 | 0.00 | 0.00 | 0.00 | 65 | 1009.7 |
| 20260505085504 | 16 | 263 | 4.8 | 12.9 | 0.00 | 0.00 | 0.00 | 65 | 1009.6 |
| 20260505085005 | 16 | 244 | 4.8 | 12.9 | 0.00 | 0.00 | 0.00 | 64 | 1009.6 |
| 20260505084511 | 16 | 260 | 4.8 | 16.1 | 0.00 | 0.00 | 0.00 | 64 | 1009.6 |
| 20260505084005 | 16 | 259 | 8.0 | 16.1 | 0.00 | 0.00 | 0.00 | 64 | 1009.6 |
| 20260505083509 | 16 | 250 | 6.4 | 14.5 | 0.00 | 0.00 | 0.00 | 64 | 1009.6 |
| 20260505083029 | 16 | 239 | 6.4 | 14.5 | 0.00 | 0.00 | 0.00 | 64 | 1009.7 |
| 20260505082507 | 16 | 261 | 4.8 | 14.5 | 0.00 | 0.00 | 0.00 | 64 | 1009.8 |
| 20260505082009 | 16 | 263 | 4.8 | 12.9 | 0.00 | 0.00 | 0.00 | 64 | 1009.7 |
| 20260505081523 | 16 | 219 | 6.4 | 12.9 | 0.00 | 0.00 | 0.00 | 64 | 1009.6 |
| 20260505081005 | 16 | 236 | 3.2 | 9.7 | 0.00 | 0.00 | 0.00 | 65 | 1009.6 |
| 20260505080506 | 16 | 231 | 3.2 | 8.0 | 0.00 | 0.00 | 0.00 | 65 | 1009.6 |
| 20260505080034 | 16 | 222 | 0.0 | 3.2 | 0.00 | 0.00 | 0.00 | 65 | 1009.6 |
| 20260505075506 | 16 | 213 | 0.0 | 3.2 | 0.00 | 0.00 | 0.00 | 65 | 1009.5 |
| 20260505075009 | 16 | 203 | 0.0 | 3.2 | 0.00 | 0.00 | 0.00 | 63 | 1009.5 |
| 20260505074512 | 16 | 261 | 1.6 | 4.8 | 0.00 | 0.00 | 0.00 | 63 | 1009.5 |
| 20260505074004 | 16 | 242 | 1.6 | 4.8 | 0.00 | 0.00 | 0.00 | 63 | 1009.4 |
| 20260505073503 | 17 | 233 | 1.6 | 4.8 | 0.00 | 0.00 | 0.00 | 62 | 1009.3 |
| 20260505072505 | 17 | 259 | 1.6 | 12.9 | 0.00 | 0.00 | 0.00 | 61 | 1009.2 |
| 20260505072006 | 17 | 208 | 4.8 | 12.9 | 0.00 | 0.00 | 0.00 | 61 | 1009.2 |
| 20260505071528 | 17 | 231 | 3.2 | 11.3 | 0.00 | 0.00 | 0.00 | 61 | 1009.1 |
| 20260505071004 | 17 | 212 | 4.8 | 9.7 | 0.00 | 0.00 | 0.00 | 61 | 1009.2 |
| 20260505070509 | 17 | 158 | 3.2 | 9.7 | 0.00 | 0.00 | 0.00 | 61 | 1009.2 |
| 20260505070028 | 17 | 211 | 4.8 | 9.7 | 0.00 | 0.00 | 0.00 | 61 | 1009.2 |
| 20260505065507 | 17 | 207 | 3.2 | 9.7 | 0.00 | 0.00 | 0.00 | 60 | 1009.3 |
| 20260505065010 | 17 | 170 | 3.2 | 8.0 | 0.00 | 0.00 | 0.00 | 60 | 1009.2 |
| 20260505064526 | 17 | 264 | 3.2 | 8.0 | 0.00 | 0.00 | 0.00 | 60 | 1009.3 |
| 20260505064010 | 17 | 227 | 1.6 | 12.9 | 0.00 | 0.00 | 0.00 | 60 | 1009.2 |
| 20260505063508 | 17 | 214 | 1.6 | 12.9 | 0.00 | 0.00 | 0.00 | 59 | 1009.3 |
| 20260505063015 | 17 | 228 | 4.8 | 9.7 | 0.00 | 0.00 | 0.00 | 59 | 1009.4 |
| 20260505062503 | 17 | 179 | 3.2 | 11.3 | 0.00 | 0.00 | 0.00 | 59 | 1009.4 |
| 20260505062004 | 17 | 262 | 3.2 | 11.3 | 0.00 | 0.00 | 0.00 | 58 | 1009.4 |
| 20260505061006 | 17 | 240 | 4.8 | 9.7 | 0.00 | 0.00 | 0.00 | 58 | 1009.4 |
| 20260505060510 | 17 | 257 | 3.2 | 9.7 | 0.00 | 0.00 | 0.00 | 58 | 1009.5 |
| 20260505060018 | 17 | 226 | 4.8 | 14.5 | 0.00 | 0.00 | 0.00 | 58 | 1009.5 |
| 20260505055510 | 17 | 236 | 6.4 | 14.5 | 0.00 | 0.00 | 0.00 | 57 | 1009.5 |
| 20260505055011 | 18 | 235 | 3.2 | 8.0 | 0.00 | 0.00 | 0.00 | 58 | 1009.5 |
| 20260505054534 | 18 | 201 | 3.2 | 8.0 | 0.00 | 0.00 | 0.00 | 57 | 1009.4 |
| 20260505054012 | 18 | 224 | 3.2 | 11.3 | 0.00 | 0.00 | 0.00 | 57 | 1009.5 |
| 20260505053510 | 18 | 246 | 6.4 | 11.3 | 0.00 | 0.00 | 0.00 | 57 | 1009.5 |
| 20260505053023 | 18 | 231 | 3.2 | 8.0 | 0.00 | 0.00 | 0.00 | 56 | 1009.5 |
| 20260505052508 | 18 | 240 | 4.8 | 9.7 | 0.00 | 0.00 | 0.00 | 56 | 1009.5 |
| 20260505052009 | 18 | 302 | 4.8 | 9.7 | 0.00 | 0.00 | 0.00 | 56 | 1009.4 |
| 20260505051006 | 18 | 278 | 1.6 | 8.0 | 0.00 | 0.00 | 0.00 | 56 | 1009.4 |
| 20260505050507 | 18 | 240 | 3.2 | 6.4 | 0.00 | 0.00 | 0.00 | 56 | 1009.4 |
| 20260505041006 | 18 | 262 | 1.6 | 4.8 | 0.00 | 0.00 | 0.00 | 54 | 1009.2 |
| 20260505040506 | 18 | 251 | 1.6 | 6.4 | 0.00 | 0.00 | 0.00 | 53 | 1009.2 |
| 20260505040017 | 18 | 256 | 1.6 | 8.0 | 0.00 | 0.00 | 0.00 | 53 | 1009.1 |
| 20260505035507 | 18 | 240 | 1.6 | 8.0 | 0.00 | 0.00 | 0.00 | 53 | 1009.2 |
| 20260505035004 | 18 | 215 | 3.2 | 6.4 | 0.00 | 0.00 | 0.00 | 53 | 1009.2 |
| 20260505034521 | 18 | 235 | 0.0 | 4.8 | 0.00 | 0.00 | 0.00 | 53 | 1009.2 |
| 20260505034003 | 18 | 222 | 1.6 | 4.8 | 0.00 | 0.00 | 0.00 | 53 | 1009.2 |
| 20260505033503 | 18 | 215 | 3.2 | 4.8 | 0.00 | 0.00 | 0.00 | 53 | 1009.2 |
| 20260505033006 | 18 | 234 | 0.0 | 6.4 | 0.00 | 0.00 | 0.00 | 52 | 1009.2 |
| 20260505032503 | 18 | 250 | 3.2 | 8.0 | 0.00 | 0.00 | 0.00 | 51 | 1009.3 |
| 20260505032005 | 18 | 240 | 6.4 | 11.3 | 0.00 | 0.00 | 0.00 | 50 | 1009.3 |
| 20260505031521 | 18 | 242 | 1.6 | 11.3 | 0.00 | 0.00 | 0.00 | 50 | 1009.2 |
| 20260505031003 | 18 | 243 | 0.0 | 1.6 | 0.00 | 0.00 | 0.00 | 50 | 1009.3 |
| 20260505030504 | 18 | 246 | 0.0 | 1.6 | 0.00 | 0.00 | 0.00 | 50 | 1009.3 |
| 20260505030011 | 18 | 243 | 0.0 | 3.2 | 0.00 | 0.00 | 0.00 | 49 | 1009.3 |
| 20260505025511 | 18 | 220 | 0.0 | 3.2 | 0.00 | 0.00 | 0.00 | 49 | 1009.2 |
| 20260505025007 | 19 | 236 | 1.6 | 6.4 | 0.00 | 0.00 | 0.00 | 48 | 1009.2 |
| 20260505024516 | 19 | 240 | 1.6 | 8.0 | 0.00 | 0.00 | 0.00 | 47 | 1009.2 |
| 20260505024006 | 19 | 232 | 1.6 | 8.0 | 0.00 | 0.00 | 0.00 | 47 | 1009.1 |
| 20260505023508 | 19 | 232 | 3.2 | 8.0 | 0.00 | 0.00 | 0.00 | 47 | 1009.0 |
| 20260505023022 | 19 | 169 | 0.0 | 3.2 | 0.00 | 0.00 | 0.00 | 46 | 1009.0 |
| 20260505022503 | 19 | 168 | 1.6 | 3.2 | 0.00 | 0.00 | 0.00 | 45 | 1009.0 |
| 20260505022003 | 19 | 9 | 0.0 | 4.8 | 0.00 | 0.00 | 0.00 | 45 | 1009.1 |
| 20260505021507 | 20 | 8 | 1.6 | 4.8 | 0.00 | 0.00 | 0.00 | 45 | 1009.1 |
| 20260505021003 | 20 | 117 | 0.0 | 4.8 | 0.00 | 0.00 | 0.00 | 44 | 1009.0 |
| 20260505020504 | 20 | 150 | 1.6 | 6.4 | 0.00 | 0.00 | 0.00 | 44 | 1009.0 |
| 20260505020008 | 20 | 134 | 3.2 | 9.7 | 0.00 | 0.00 | 0.00 | 44 | 1009.0 |
| 20260505015505 | 20 | 150 | 3.2 | 9.7 | 0.00 | 0.00 | 0.00 | 43 | 1009.0 |
| 20260505015005 | 20 | 168 | 1.6 | 9.7 | 0.00 | 0.00 | 0.00 | 43 | 1009.0 |
| 20260505014520 | 20 | 170 | 3.2 | 9.7 | 0.00 | 0.00 | 0.00 | 43 | 1009.0 |
| 20260505014006 | 20 | 161 | 4.8 | 9.7 | 0.00 | 0.00 | 0.00 | 43 | 1008.9 |
| 20260505013507 | 20 | 181 | 3.2 | 11.3 | 0.00 | 0.00 | 0.00 | 42 | 1008.9 |
| 20260505013019 | 20 | 146 | 4.8 | 12.9 | 0.00 | 0.00 | 0.00 | 42 | 1008.8 |
| 20260505012507 | 20 | 241 | 4.8 | 12.9 | 0.00 | 0.00 | 0.00 | 42 | 1008.8 |
| 20260505012009 | 20 | 172 | 4.8 | 9.7 | 0.00 | 0.00 | 0.00 | 42 | 1008.9 |
| 20260505011524 | 21 | 179 | 4.8 | 11.3 | 0.00 | 0.00 | 0.00 | 42 | 1008.9 |
| 20260505011004 | 21 | 229 | 3.2 | 11.3 | 0.00 | 0.00 | 0.00 | 42 | 1008.9 |
| 20260505010503 | 21 | 207 | 3.2 | 9.7 | 0.00 | 0.00 | 0.00 | 42 | 1008.8 |
| 20260505010013 | 21 | 142 | 3.2 | 9.7 | 0.00 | 0.00 | 0.00 | 41 | 1008.7 |
| 20260505005503 | 21 | 143 | 3.2 | 11.3 | 0.00 | 0.00 | 0.00 | 41 | 1008.6 |
| 20260505005004 | 21 | 154 | 3.2 | 12.9 | 0.00 | 0.00 | 0.00 | 41 | 1008.5 |
| 20260505004512 | 21 | 175 | 6.4 | 17.7 | 0.00 | 0.00 | 0.00 | 40 | 1008.5 |
| 20260505004005 | 21 | 203 | 8.0 | 17.7 | 0.00 | 0.00 | 0.00 | 40 | 1008.4 |
| 20260505003505 | 21 | 167 | 4.8 | 14.5 | 0.00 | 0.00 | 0.00 | 40 | 1008.4 |
| 20260505003016 | 21 | 211 | 4.8 | 14.5 | 0.00 | 0.00 | 0.00 | 40 | 1008.3 |
| 20260505002506 | 21 | 231 | 4.8 | 12.9 | 0.00 | 0.00 | 0.00 | 40 | 1008.3 |
| 20260505002005 | 21 | 163 | 4.8 | 17.7 | 0.00 | 0.00 | 0.00 | 40 | 1008.3 |
| 20260505001520 | 21 | 199 | 3.2 | 17.7 | 0.00 | 0.00 | 0.00 | 40 | 1008.3 |
| 20260505001008 | 21 | 241 | 1.6 | 14.5 | 0.00 | 0.00 | 0.00 | 39 | 1008.2 |
| 20260505000506 | 21 | 125 | 3.2 | 12.9 | 0.00 | 0.00 | 0.00 | 39 | 1008.2 |
| 20260505000027 | 22 | 226 | 3.2 | 16.1 | 0.00 | 0.00 | 0.00 | 39 | 1008.2 |
| 20260504235503 | 22 | 290 | 3.2 | 16.1 | 0.00 | 0.00 | 0.00 | 38 | 1008.2 |
| 20260504235003 | 22 | 146 | 3.2 | 11.3 | 0.00 | 0.00 | 0.00 | 38 | 1008.1 |
| 20260504234508 | 22 | 259 | 1.6 | 16.1 | 0.00 | 0.00 | 0.00 | 38 | 1008.1 |
| 20260504234001 | 22 | 235 | 6.4 | 16.1 | 0.00 | 0.00 | 0.00 | 37 | 1008.0 |
| 20260504233503 | 22 | 217 | 4.8 | 16.1 | 0.00 | 0.00 | 0.00 | 37 | 1008.0 |
| 20260504233014 | 23 | 183 | 4.8 | 14.5 | 0.00 | 0.00 | 0.00 | 37 | 1007.9 |
| 20260504232505 | 23 | 256 | 4.8 | 19.3 | 0.00 | 0.00 | 0.00 | 37 | 1007.9 |
| 20260504232007 | 23 | 244 | 6.4 | 24.1 | 0.00 | 0.00 | 0.00 | 37 | 1007.9 |
| 20260504231517 | 23 | 261 | 11.3 | 32.2 | 0.00 | 0.00 | 0.00 | 37 | 1008.0 |
| 20260504231009 | 23 | 240 | 11.3 | 32.2 | 0.00 | 0.00 | 0.00 | 37 | 1007.9 |
| 20260504230508 | 23 | 191 | 11.3 | 27.4 | 0.00 | 0.00 | 0.00 | 36 | 1008.0 |
| 20260504230022 | 23 | 177 | 9.7 | 27.4 | 0.00 | 0.00 | 0.00 | 37 | 1008.0 |
| 20260504225507 | 23 | 168 | 14.5 | 27.4 | 0.00 | 0.00 | 0.00 | 36 | 1008.0 |
| 20260504225011 | 23 | 244 | 9.7 | 25.7 | 0.00 | 0.00 | 0.00 | 36 | 1008.1 |
| 20260504224531 | 23 | 257 | 11.3 | 30.6 | 0.00 | 0.00 | 0.00 | 36 | 1008.1 |
| 20260504224003 | 23 | 170 | 17.7 | 30.6 | 0.00 | 0.00 | 0.00 | 36 | 1008.1 |
| 20260504223503 | 23 | 207 | 9.7 | 29.0 | 0.00 | 0.00 | 0.00 | 37 | 1008.1 |
| 20260504223025 | 23 | 242 | 11.3 | 29.0 | 0.00 | 0.00 | 0.00 | 36 | 1008.1 |
| 20260504222503 | 23 | 200 | 9.7 | 25.7 | 0.00 | 0.00 | 0.00 | 36 | 1008.1 |
| 20260504222007 | 23 | 237 | 9.7 | 25.7 | 0.00 | 0.00 | 0.00 | 36 | 1008.1 |
| 20260504221516 | 23 | 216 | 12.9 | 22.5 | 0.00 | 0.00 | 0.00 | 37 | 1008.2 |
| 20260504221006 | 23 | 194 | 9.7 | 20.9 | 0.00 | 0.00 | 0.00 | 36 | 1008.2 |
| 20260504220504 | 23 | 221 | 9.7 | 20.9 | 0.00 | 0.00 | 0.00 | 35 | 1008.3 |
| 20260504220008 | 23 | 219 | 9.7 | 27.4 | 0.00 | 0.00 | 0.00 | 35 | 1008.2 |
| 20260504215505 | 23 | 209 | 11.3 | 27.4 | 0.00 | 0.00 | 0.00 | 36 | 1008.2 |
| 20260504215002 | 23 | 236 | 9.7 | 22.5 | 0.00 | 0.00 | 0.00 | 35 | 1008.2 |
| 20260504214503 | 23 | 227 | 9.7 | 24.1 | 0.00 | 0.00 | 0.00 | 35 | 1008.1 |
| 20260504214003 | 23 | 193 | 8.0 | 24.1 | 0.00 | 0.00 | 0.00 | 36 | 1008.3 |
| 20260504213503 | 23 | 244 | 14.5 | 27.4 | 0.00 | 0.00 | 0.00 | 35 | 1008.3 |
| 20260504213009 | 23 | 184 | 9.7 | 27.4 | 0.00 | 0.00 | 0.00 | 35 | 1008.2 |
| 20260504212503 | 23 | 210 | 8.0 | 22.5 | 0.00 | 0.00 | 0.00 | 36 | 1008.2 |
| 20260504212003 | 23 | 226 | 9.7 | 25.7 | 0.00 | 0.00 | 0.00 | 35 | 1008.3 |
| 20260504211509 | 23 | 223 | 11.3 | 25.7 | 0.00 | 0.00 | 0.00 | 35 | 1008.1 |
| 20260504211004 | 23 | 243 | 11.3 | 25.7 | 0.00 | 0.00 | 0.00 | 35 | 1008.1 |
| 20260504210504 | 23 | 189 | 11.3 | 25.7 | 0.00 | 0.00 | 0.00 | 35 | 1008.1 |
| 20260504210016 | 23 | 218 | 12.9 | 24.1 | 0.00 | 0.00 | 0.00 | 35 | 1008.2 |
| 20260504205504 | 23 | 207 | 11.3 | 19.3 | 0.00 | 0.00 | 0.00 | 35 | 1008.1 |
| 20260504204004 | 23 | 173 | 6.4 | 20.9 | 0.00 | 0.00 | 0.00 | 34 | 1008.2 |
| 20260504203503 | 23 | 243 | 9.7 | 20.9 | 0.00 | 0.00 | 0.00 | 35 | 1008.4 |
| 20260504203006 | 23 | 223 | 9.7 | 19.3 | 0.00 | 0.00 | 0.00 | 35 | 1008.4 |
| 20260504202506 | 23 | 191 | 11.3 | 20.9 | 0.00 | 0.00 | 0.00 | 35 | 1008.5 |
| 20260504202004 | 23 | 200 | 9.7 | 20.9 | 0.00 | 0.00 | 0.00 | 35 | 1008.6 |
| 20260504201509 | 23 | 200 | 8.0 | 24.1 | 0.00 | 0.00 | 0.00 | 34 | 1008.7 |
| 20260504201003 | 23 | 172 | 8.0 | 25.7 | 0.00 | 0.00 | 0.00 | 35 | 1008.7 |
| 20260504200503 | 23 | 218 | 6.4 | 25.7 | 0.00 | 0.00 | 0.00 | 34 | 1008.8 |
| 20260504200016 | 23 | 248 | 11.3 | 22.5 | 0.00 | 0.00 | 0.00 | 35 | 1008.8 |
| 20260504195504 | 23 | 172 | 4.8 | 19.3 | 0.00 | 0.00 | 0.00 | 35 | 1008.9 |
| 20260504195007 | 23 | 221 | 6.4 | 20.9 | 0.00 | 0.00 | 0.00 | 35 | 1009.0 |
| 20260504194514 | 22 | 259 | 6.4 | 24.1 | 0.00 | 0.00 | 0.00 | 35 | 1009.1 |
| 20260504193509 | 22 | 238 | 14.5 | 24.1 | 0.00 | 0.00 | 0.00 | 35 | 1009.2 |
| 20260504193011 | 22 | 239 | 9.7 | 27.4 | 0.00 | 0.00 | 0.00 | 36 | 1009.3 |
| 20260504192505 | 22 | 217 | 16.1 | 27.4 | 0.00 | 0.00 | 0.00 | 35 | 1009.4 |
| 20260504192005 | 22 | 231 | 8.0 | 22.5 | 0.00 | 0.00 | 0.00 | 36 | 1009.5 |
| 20260504191512 | 22 | 238 | 12.9 | 19.3 | 0.00 | 0.00 | 0.00 | 35 | 1009.5 |
| 20260504191003 | 22 | 90 | 4.8 | 17.7 | 0.00 | 0.00 | 0.00 | 35 | 1009.6 |
| 20260504190506 | 22 | 207 | 11.3 | 22.5 | 0.00 | 0.00 | 0.00 | 35 | 1009.6 |
| 20260504190015 | 22 | 213 | 6.4 | 22.5 | 0.00 | 0.00 | 0.00 | 37 | 1009.6 |
| 20260504185503 | 22 | 215 | 8.0 | 24.1 | 0.00 | 0.00 | 0.00 | 37 | 1009.8 |
| 20260504185003 | 22 | 199 | 8.0 | 29.0 | 0.00 | 0.00 | 0.00 | 36 | 1009.8 |
| 20260504184525 | 22 | 169 | 9.7 | 29.0 | 0.00 | 0.00 | 0.00 | 35 | 1009.9 |
| 20260504184006 | 22 | 227 | 8.0 | 20.9 | 0.00 | 0.00 | 0.00 | 35 | 1010.0 |
| 20260504183506 | 22 | 274 | 9.7 | 19.3 | 0.00 | 0.00 | 0.00 | 35 | 1010.0 |
| 20260504183023 | 22 | 155 | 9.7 | 20.9 | 0.00 | 0.00 | 0.00 | 35 | 1010.1 |